Stations météo

réclame
Mon MeteoGroup
Skillinge, Suède (2625): Température de l'air & dewpoint: 19.04.2018 10:00:00 - 25.04.2018 10:00:00 (CEST)Skillinge, Suède (2625): Vitesse du vent & gusts: 19.04.2018 10:00:00 - 25.04.2018 10:00:00 (CEST)Skillinge, Suède (2625): Direction du vent: 19.04.2018 10:00:00 - 25.04.2018 10:00:00 (CEST)Skillinge, Suède (2625): reduced air pressure: 19.04.2018 10:00:00 - 25.04.2018 10:00:00 (CEST)Skillinge, Suède (2625): visibility: 19.04.2018 10:00:00 - 25.04.2018 10:00:00 (CEST)Skillinge, Suède (2625): Quantités de précipitations: 19.04.2018 10:00:00 - 25.04.2018 10:00:00 (CEST)
Date & Time tt [°C] td [°C] ff [km/h] ff [knt] fx [km/h] fx [knt] dd ppp [hPa] vv [km] rr [mm]
25.04.2018 10:00:00 - - - - - - - - - -
25.04.2018 09:00:00 5,4 5,1 4 2 19 11 S 1002,1 5 1,1
25.04.2018 08:00:00 5,8 5,2 10 5 23 12 SSW 1003,0 13 0,3
25.04.2018 07:00:00 6,4 5,4 10 6 27 14 WSW 1003,4 17 0,3
25.04.2018 06:00:00 6,4 5,2 14 8 27 14 WSW 1004,0 11 0,0
25.04.2018 05:00:00 6,8 4,8 13 7 28 15 WSW 1004,7 20 0,0
25.04.2018 04:00:00 6,7 4,7 15 8 29 16 WSW 1005,1 19 0,0
25.04.2018 03:00:00 6,9 4,4 17 9 31 17 WSW 1005,7 21 0,0
25.04.2018 02:00:00 6,7 4,2 16 9 34 19 WSW 1006,4 22 0,0
25.04.2018 01:00:00 7,3 4,3 21 11 34 19 WSW 1006,6 31 0,0
25.04.2018 00:00:00 6,5 4,0 17 9 31 17 WSW 1007,2 31 0,0
24.04.2018 23:00:00 7,0 4,0 16 9 36 20 WSW 1007,0 29 0,0
24.04.2018 22:00:00 8,3 4,3 21 11 42 23 WSW 1007,0 31 0,0
24.04.2018 21:00:00 8,9 4,3 24 13 46 25 WSW 1006,9 38 0,0
24.04.2018 20:00:00 9,4 4,2 28 15 53 29 WSW 1006,4 35 0,0
24.04.2018 19:00:00 10,6 4,3 33 18 66 36 WSW 1005,9 33 0,0
24.04.2018 18:00:00 11,1 4,5 39 21 72 39 WSW 1005,7 31 0,0
24.04.2018 17:00:00 11,3 5,2 44 24 72 39 WSW 1005,5 14 0,0
24.04.2018 16:00:00 10,9 7,4 48 26 66 36 WSW 1005,7 11 0,0
24.04.2018 15:00:00 9,8 7,6 45 24 62 34 WSW 1006,5 11 0,0
24.04.2018 14:00:00 10,2 7,1 38 21 60 33 WSW 1006,6 14 0,0
24.04.2018 13:00:00 10,0 6,7 37 20 58 31 WSW 1007,0 11 0,0
24.04.2018 12:00:00 10,2 6,3 30 16 49 26 SW 1007,2 19 0,0
24.04.2018 11:00:00 7,4 5,5 26 14 34 18 SSW 1007,7 17 0,0
24.04.2018 10:00:00 8,5 5,4 19 10 43 23 SW 1008,4 25 0,0
24.04.2018 09:00:00 8,8 6,2 19 10 43 23 WSW 1008,8 13 0,0
24.04.2018 08:00:00 7,7 5,5 22 12 37 20 WSW 1009,0 16 0,0
24.04.2018 07:00:00 6,9 5,7 18 10 35 19 WSW 1009,1 10 0,0
24.04.2018 06:00:00 6,4 5,2 23 12 35 19 WSW 1009,4 11 0,0
24.04.2018 05:00:00 6,0 5,1 16 9 26 14 WSW 1009,4 10 0,0
24.04.2018 04:00:00 6,6 5,4 16 8 27 14 WSW 1009,4 14 0,0
24.04.2018 03:00:00 7,4 5,5 17 9 27 15 WSW 1009,7 28 0,0
24.04.2018 02:00:00 7,0 4,8 15 8 28 15 WSW 1009,8 44 0,0
24.04.2018 01:00:00 7,5 4,5 19 10 28 15 WSW 1009,8 48 0,0
24.04.2018 00:00:00 7,3 4,3 13 7 19 10 WSW 1009,7 50 0,0
23.04.2018 23:00:00 8,2 4,4 13 7 20 11 WSW 1009,5 50 0,0
23.04.2018 22:00:00 8,5 4,5 14 7 24 13 WSW 1009,3 50 0,0
23.04.2018 21:00:00 9,6 5,0 13 7 40 22 WSW 1009,0 43 0,0
23.04.2018 20:00:00 11,4 5,1 18 10 42 23 WSW 1008,3 34 0,0
23.04.2018 19:00:00 14,4 4,4 27 14 42 23 WSW 1007,9 33 0,0
23.04.2018 18:00:00 13,9 5,3 26 14 51 28 WSW 1007,8 30 0,0
23.04.2018 17:00:00 15,1 6,4 29 15 53 28 WSW 1007,6 36 0,0
23.04.2018 16:00:00 16,9 6,4 29 16 53 28 W 1007,3 40 0,0
23.04.2018 15:00:00 17,0 6,8 21 12 39 21 WNW 1007,2 34 0,0
23.04.2018 14:00:00 17,2 8,9 25 14 37 20 W 1006,7 27 0,0
23.04.2018 13:00:00 17,9 11,2 19 11 42 23 W 1006,1 15 0,0
23.04.2018 12:00:00 15,5 10,9 24 13 42 23 WSW 1005,9 19 0,0
23.04.2018 11:00:00 15,1 10,5 28 15 39 21 WSW 1005,8 17 0,0
23.04.2018 10:00:00 7,7 6,2 11 6 15 8 SW 1006,2 20 0,0
23.04.2018 09:00:00 7,9 6,0 10 6 23 13 SW 1006,7 25 0,0
23.04.2018 08:00:00 7,5 5,6 12 7 25 14 SSW 1007,3 27 0,0
23.04.2018 07:00:00 7,4 5,4 11 6 25 14 SSW 1007,7 31 -
23.04.2018 06:00:00 5,9 3,7 8 4 26 14 ENE 1007,9 33 0,0
23.04.2018 05:00:00 6,2 3,7 9 5 26 14 E 1009,2 44 0,0
23.04.2018 04:00:00 6,0 3,3 15 8 22 12 NE 1009,9 49 0,0
23.04.2018 03:00:00 6,0 3,2 11 6 18 10 ENE 1011,2 47 0,0
23.04.2018 02:00:00 5,4 3,6 6 4 12 7 ENE 1012,3 15 0,0
23.04.2018 01:00:00 5,3 3,8 7 4 13 7 NE 1012,9 12 0,0
23.04.2018 00:00:00 5,7 4,0 9 5 20 11 ENE 1013,4 16 0,0
22.04.2018 23:00:00 6,5 4,0 9 5 20 11 ESE 1014,0 41 0,0
22.04.2018 22:00:00 6,3 4,1 11 6 16 9 E 1014,1 27 0,0
22.04.2018 21:00:00 6,4 4,2 6 4 10 5 ENE 1014,2 19 0,0
22.04.2018 20:00:00 6,6 3,7 3 2 9 5 E 1014,4 30 0,0
22.04.2018 19:00:00 7,8 4,9 3 2 14 8 SSE 1014,4 20 0,0
22.04.2018 18:00:00 8,4 5,3 4 2 17 9 SSE 1015,0 17 0,0
22.04.2018 17:00:00 8,3 5,6 10 5 18 10 SSW 1015,3 16 0,0
22.04.2018 16:00:00 8,9 5,8 11 6 23 12 SSW 1015,8 19 0,0
22.04.2018 15:00:00 9,0 6,1 14 8 23 12 SSW 1016,2 22 0,0
22.04.2018 14:00:00 9,0 5,9 9 5 18 10 S 1016,6 21 0,0
22.04.2018 13:00:00 7,1 5,4 14 8 21 11 NE 1016,9 14 0,0
22.04.2018 12:00:00 6,7 5,0 16 8 21 11 NE 1017,0 13 0,0
22.04.2018 11:00:00 14,1 3,3 7 4 21 12 WNW 1017,0 47 0,0
22.04.2018 10:00:00 12,8 4,7 10 6 19 11 W 1017,0 45 0,0
22.04.2018 09:00:00 10,8 5,1 14 8 19 11 W 1016,9 37 0,0
22.04.2018 08:00:00 9,0 5,4 11 6 16 9 W 1017,1 28 0,0
22.04.2018 07:00:00 5,2 4,0 2 1 8 5 WSW 1017,3 29 0,0
22.04.2018 06:00:00 3,6 2,0 5 3 9 5 WNW 1017,3 38 0,0
22.04.2018 05:00:00 2,9 1,4 6 3 9 5 W 1017,5 42 0,0
22.04.2018 04:00:00 3,0 1,4 5 3 9 5 W 1017,8 44 0,0
22.04.2018 03:00:00 3,7 1,7 0 0 11 6 N 1017,8 47 0,0
22.04.2018 02:00:00 6,2 2,8 9 5 11 6 W 1017,8 50 0,0
22.04.2018 01:00:00 6,1 2,9 7 4 13 7 W 1017,9 50 0,0
22.04.2018 00:00:00 7,3 3,3 8 4 15 8 W 1017,8 50 0,0
21.04.2018 23:00:00 8,1 3,7 10 6 15 8 W 1017,8 50 0,0
21.04.2018 22:00:00 9,3 4,1 9 5 23 12 W 1018,0 50 0,0
21.04.2018 21:00:00 11,1 3,9 10 6 35 19 W 1017,9 50 0,0
21.04.2018 20:00:00 12,7 4,1 13 7 37 20 WNW 1017,6 48 0,0
21.04.2018 19:00:00 14,6 3,1 23 12 39 21 WNW 1017,6 50 0,0
21.04.2018 18:00:00 15,4 1,9 25 14 39 21 NW 1017,6 45 0,0
21.04.2018 17:00:00 16,1 1,8 27 15 39 21 WNW 1017,8 37 0,0
21.04.2018 16:00:00 16,6 2,2 27 15 39 21 WNW 1017,7 41 0,0
21.04.2018 15:00:00 17,3 3,9 23 13 40 22 WNW 1017,5 38 0,0
21.04.2018 14:00:00 17,1 2,7 29 16 40 22 WNW 1017,4 40 0,0
21.04.2018 13:00:00 16,8 4,1 25 13 40 22 W 1017,3 37 0,0
21.04.2018 12:00:00 16,2 3,9 25 13 40 22 W 1017,4 33 0,0
21.04.2018 11:00:00 15,1 3,6 26 14 40 22 WNW 1017,3 35 0,0
21.04.2018 10:00:00 14,0 4,3 26 14 35 19 WNW 1016,9 43 0,0
21.04.2018 09:00:00 12,7 5,6 21 11 32 17 WNW 1016,6 31 0,0
21.04.2018 08:00:00 - - - - - - - - - -
21.04.2018 07:00:00 9,7 6,4 13 7 19 11 W 1015,9 11 0,0
21.04.2018 06:00:00 8,7 6,1 10 5 21 11 W 1015,4 9 0,0
21.04.2018 05:00:00 9,6 6,9 12 6 26 14 W 1015,1 9 0,0
21.04.2018 04:00:00 11,1 7,6 14 8 30 16 W 1014,8 9 0,0
21.04.2018 03:00:00 12,4 8,1 18 10 32 17 WNW 1014,5 9 0,0
21.04.2018 02:00:00 13,0 8,5 18 10 32 17 W 1014,3 7 0,0
21.04.2018 01:00:00 14,4 8,3 19 10 29 16 WNW 1014,2 10 0,0
21.04.2018 00:00:00 15,4 9,3 18 10 28 15 WNW 1013,9 9 0,0
20.04.2018 23:00:00 13,2 8,9 13 7 26 14 W 1014,0 6 0,0
20.04.2018 22:00:00 13,8 8,8 15 8 26 14 W 1014,4 8 0,0
20.04.2018 21:00:00 13,3 8,6 15 8 24 13 WSW 1014,8 13 0,0
20.04.2018 20:00:00 14,1 9,3 15 8 24 13 WSW 1015,1 16 0,0
20.04.2018 19:00:00 11,4 8,8 14 8 23 13 SW 1015,7 13 0,0
20.04.2018 18:00:00 11,2 8,6 10 5 15 8 SSW 1016,8 11 0,0
20.04.2018 17:00:00 10,9 8,3 8 4 16 9 SW 1017,9 11 0,0
20.04.2018 16:00:00 10,8 8,2 9 5 18 10 SW 1019,4 10 0,0
20.04.2018 15:00:00 10,1 8,0 8 4 18 10 SSW 1020,9 9 0,0
20.04.2018 14:00:00 9,9 7,8 12 7 18 10 SSW 1022,0 10 0,0
20.04.2018 13:00:00 9,8 7,7 8 5 17 9 SSW 1022,7 8 0,0
20.04.2018 12:00:00 9,9 8,3 12 6 17 9 SSW 1023,4 8 0,0
20.04.2018 11:00:00 9,3 8,2 11 6 16 9 SSW 1024,3 7 0,0
20.04.2018 10:00:00 8,9 8,6 11 6 16 8 SSW 1024,8 6 0,0
20.04.2018 09:00:00 6,6 6,5 5 3 10 6 SSW 1025,3 0,4 0,0
20.04.2018 08:00:00 6,0 5,9 6 3 9 5 SW 1025,9 0,1 0,0
20.04.2018 07:00:00 6,1 6,0 5 3 10 5 SW 1026,5 0,2 0,0
20.04.2018 06:00:00 5,2 5,1 8 5 10 5 WSW 1026,9 1,9 0,0
20.04.2018 05:00:00 4,5 4,4 6 3 9 5 SW 1027,1 0,4 0,0
20.04.2018 04:00:00 5,3 5,0 7 4 11 6 SW 1027,5 1,2 0,0
20.04.2018 03:00:00 5,7 5,6 6 4 11 6 SW 1027,8 1,5 0,0
20.04.2018 02:00:00 6,2 6,1 8 5 12 6 WSW 1028,2 1,9 0,0
20.04.2018 01:00:00 6,0 5,9 9 5 13 7 SW 1028,6 1,5 0,0
20.04.2018 00:00:00 6,4 6,3 9 5 18 10 WSW 1028,9 1,7 0,0
19.04.2018 23:00:00 6,1 6,0 12 7 18 10 SW 1029,1 2,1 0,0
19.04.2018 22:00:00 6,1 6,0 13 7 19 10 SSW 1029,5 1,2 0,0
19.04.2018 21:00:00 6,1 6,0 13 7 19 10 SSW 1029,6 0,3 0,0
19.04.2018 20:00:00 6,4 6,1 15 8 21 11 SSW 1029,4 2,8 0,0
19.04.2018 19:00:00 7,3 6,4 15 8 22 12 SSW 1029,7 4,8 0,0
19.04.2018 18:00:00 8,4 7,0 17 9 24 13 SSW 1030,2 8 0,0
19.04.2018 17:00:00 8,9 7,0 20 11 24 13 SW 1030,5 9 0,0
19.04.2018 16:00:00 10,3 8,6 16 9 21 11 SW 1031,0 5 0,0
19.04.2018 15:00:00 11,0 9,3 14 8 20 11 SSW 1031,6 4,5 0,0
19.04.2018 14:00:00 11,3 9,4 13 7 17 9 SSW 1031,9 6 0,0
19.04.2018 13:00:00 11,0 9,3 11 6 16 9 SSW 1032,2 5 0,0
19.04.2018 12:00:00 10,9 9,0 9 5 12 7 S 1032,3 6 0,0
19.04.2018 11:00:00 10,7 9,0 8 5 11 6 SSW 1032,3 6 0,0
19.04.2018 10:00:00 11,8 9,0 7 4 10 5 ESE 1032,1 9 0,0

tt = Température de l'air
td = dewpoint
ff = Vitesse du vent
fx = gusts
dd = Direction du vent
ppp = reduced air pressure
vv = visibility
rr = Quantités de précipitations

stations d'obs. à proximité